Regional Weather Roundup
Issued by NWS

Home | Current Version | Previous Version | Text Only | Print | Product List | Glossary On
Versions: 1 2 3 4 5 6 7 8 9 10 11 12 13 14 15 16 17 18 19 20 21 22 23 24 25 26 27 28 29 30 31 32 33 34 35 36 37 38 39 40 41 42 43 44 45 46 47 48 49 50
000
ASCA44 KEWX 260520
RWRMX

LATIN AMERICA AND CARIBBEAN REGIONAL WEATHER ROUNDUP
NATIONAL WEATHER SERVICE AUSTIN/SAN ANTONIO TX
1200 AM CDT SUN APR 26 2015

NOTE: "FAIR" INDICATED FEW OR NO CLOUDS BELOW 12,000 FEET WITH NO
SIGNIFICANT WEATHER AND/OR OBSTRUCTIONS TO VISIBILITY.

BAJA CALIFORNIA

CITY           SKY/WX    TMP DP  RH WIND       PRES   REMARKS
LA PAZ         PTCLDY    70  52  52 S12       29.95R
MEXICALI       PTCLDY    68  45  42 W14       29.82S
S.J. DEL CABO  PTCLDY    72  52  49 SE2       29.92S
TIJUANA        MOCLDY    59  52  77 W15       29.99R

NORTHWESTERN MEXICO

CITY           SKY/WX    TMP DP  RH WIND       PRES   REMARKS
CULIACAN         N/A    N/A N/A N/A MISG        N/A
HERMOSILLO     CLEAR     72  45  37 S9        29.89R
LOS MOCHIS       N/A    N/A N/A N/A MISG        N/A

NORTHEASTERN MEXICO

CITY           SKY/WX    TMP DP  RH WIND       PRES   REMARKS
CHIHUAHUA      CLEAR     66  28  24 SW12      29.94R
MONTERREY      CLEAR     73  72  94 NE3       29.76S
REYNOSA        PTCLDY    75  72  88 NE3       29.73F
CD. VICTORIA   MOCLDY    81  72  74 NW3       29.79R

WESTERN MEXICO

CITY           SKY/WX    TMP DP  RH WIND       PRES   REMARKS
AGUASCALIENTES PTCLDY    61  36  39 S7        30.19R
DEL BAJIO      MOCLDY    70  43  37 CALM      30.24R
GUADALAJARA    MOCLDY    70  52  52 W5        30.15R
MAZATLAN       PTCLDY    66  57  72 NW7       29.87R
P. VALLARTA    MOCLDY    79  73  83 CALM      29.89S

CENTRAL MEXICO

CITY           SKY/WX    TMP DP  RH WIND       PRES   REMARKS
MEXICO CITY    CLEAR     70  41  35 NE8       30.29R
MORELIA        PTCLDY    59  46  63 S3        30.20R
QUERETARO        N/A    N/A N/A N/A MISG        N/A
S. LUIS POTOSI MOCLDY    73  39  29 CALM      30.13S
TOLUCA         PTCLDY    55  41  58 N6        30.38R

SOUTHERN MEXICO

CITY           SKY/WX    TMP DP  RH WIND       PRES   REMARKS
ACAPULCO       CLEAR     81  77  89 W6        29.84R

YUCATAN PENINSULA

CITY           SKY/WX    TMP DP  RH WIND       PRES   REMARKS
CANCUN         CLEAR     81  75  83 SE8       29.91S
COZUMEL        PTCLDY    73  73 100 CALM      29.91F
MERIDA         CLEAR     88  66  48 SE13      29.81S HX  90
TAPACHULA      MOCLDY    81  77  89 CALM      29.87R

CENTRAL AMERICA

CITY           SKY/WX    TMP DP  RH WIND       PRES   REMARKS
MANAGUA        PTCLDY    82  73  74 SE12      29.83S

CARIBBEAN

CITY           SKY/WX    TMP DP  RH WIND       PRES   REMARKS
ARUBA          PTCLDY    81  75  83 E17       29.83
CURACAO        PTCLDY    81  77  89 E12       29.86S
KINGSTON       PTCLDY    82  73  74 SE6       29.92S
SAN JUAN       PTCLDY    81  73  78 CALM      29.95F
SANTO DOMINGO  PTCLDY    75  68  78 S5        29.94F
ST. CROIX      PTCLDY    79  73  83 SE6       29.97
ST. THOMAS     PTCLDY    81  73  78 S8        29.95

$$




USA.gov is the U.S. government's official web portal to all federal, state and local government web resources and services.